Weather History for Kendall, FL

Change the Weather History Date:

Tuesday, November 15, 2011

  Actual Average Record
Temperature  
Mean Temperature 81 °F -  
Max Temperature 84 °F 83 °F 87 °F (2008)
Min Temperature 77 °F 64 °F 59 °F (2010)
Cooling Degree Days 16    
Growing Degree Days 31 (Base 50)    
Moisture  
Dew Point 73 °F    
Average Humidity 77    
Maximum Humidity 90    
Minimum Humidity 70    
Precipitation  
Precipitation 0.00 in - - ()
Sea Level Pressure  
Sea Level Pressure 30.04 in    
Wind  
Wind Speed 8 mph (SE)    
Max Wind Speed 15 mph    
Max Gust Speed 21 mph    
Visibility 10 miles    
Events      
Averages and records for this station are not official NWS values.
T = Trace of Precipitation, MM = Missing Value Source: NWS Daily Summary

Daily Weather History Graph

Daily Weather History Graph

Search for Another Location

Airport:

Trip Planner

Search our weather history database for the weather conditions in past years. The results will help you decide how hot, cold, wet, or windy it might be!

Date:

Astronomy

Nov. 15, 2011 Rise Set
Actual Time 6:39 AM EST 5:33 PM EST
Civil Twilight 6:14 AM EST 5:57 PM EST
Nautical Twilight 5:47 AM EST 6:25 PM EST
Astronomical Twilight 5:19 AM EST 6:52 PM EST
Moon 9:42 PM EST (11/15) 10:34 AM EST (11/15)
Length of Visible Light 11h 42m
Length of Day
10h 53m
Waning Gibbous, 79% of the Moon is Illuminated
Nov 15
Waning Gibbous
Nov 18
Last Quarter
Nov 25
New
Dec 2
First Quarter
Dec 10
Full

Hourly Weather History & Observations

Time (EST) Temp. Heat Index Dew Point Humidity Pressure Visibility Wind Dir Wind Speed Gust Speed Precip Events Conditions
12:03 AM - - - N/A% 30.04 in 10.0 mi ESE 6.9 mph - N/A   Scattered Clouds
12:53 AM - - - N/A% 30.04 in 10.0 mi ESE 6.9 mph - N/A   Clear
1:53 AM - - - N/A% 30.03 in 10.0 mi ESE 4.6 mph - N/A   Clear
2:53 AM - - - N/A% 30.03 in 10.0 mi ESE 4.6 mph - N/A   Clear
3:53 AM - - - N/A% 30.03 in 10.0 mi ESE 4.6 mph - N/A   Clear
4:53 AM - - - N/A% 30.03 in 10.0 mi ESE 4.6 mph - N/A   Clear
5:53 AM - - - N/A% 30.04 in 10.0 mi ESE 4.6 mph - N/A   Clear
6:53 AM - - - N/A% 30.04 in 10.0 mi ESE 4.6 mph - N/A   Clear
8:45 AM 80.6 °F 86.2 °F 75.2 °F 84% 30.06 in 10.0 mi SE 12.7 mph - N/A   Mostly Cloudy
8:53 AM 80.6 °F 85.4 °F 73.4 °F 79% 30.06 in 10.0 mi SE 12.7 mph - N/A   Mostly Cloudy
9:04 AM 80.6 °F 85.4 °F 73.4 °F 79% 30.06 in 10.0 mi ESE 12.7 mph - N/A   Mostly Cloudy
9:48 AM 80.6 °F 85.4 °F 73.4 °F 79% 30.08 in 10.0 mi SE 11.5 mph 18.4 mph N/A   Mostly Cloudy
10:01 AM 80.6 °F 85.4 °F 73.4 °F 79% 30.08 in 10.0 mi ESE 12.7 mph 18.4 mph N/A   Mostly Cloudy
10:43 AM 82.4 °F 88.2 °F 73.4 °F 74% 30.07 in 10.0 mi SE 13.8 mph - N/A   Mostly Cloudy
10:53 AM 82.9 °F 89.4 °F 73.9 °F 74% 30.07 in 10.0 mi SE 15.0 mph 20.7 mph N/A   Mostly Cloudy
11:53 AM 82.9 °F 88.8 °F 73.0 °F 72% 30.06 in 10.0 mi SSE 12.7 mph 19.6 mph N/A   Scattered Clouds
12:22 PM 84.2 °F 90.9 °F 73.4 °F 70% 30.05 in 10.0 mi SSE 9.2 mph 19.6 mph N/A   Mostly Cloudy
12:53 PM 84.0 °F 91.2 °F 73.9 °F 72% 30.04 in 10.0 mi SE 12.7 mph - N/A   Mostly Cloudy
1:00 PM 82.4 °F 88.2 °F 73.4 °F 74% 30.03 in 10.0 mi SE 10.4 mph - N/A   Scattered Clouds
1:53 PM 82.9 °F 88.8 °F 73.0 °F 72% 30.02 in 10.0 mi SE 12.7 mph - N/A   Mostly Cloudy
2:53 PM 82.9 °F 88.8 °F 73.0 °F 72% 30.01 in 10.0 mi SE 13.8 mph 19.6 mph N/A   Overcast
3:53 PM 82.0 °F 87.4 °F 73.0 °F 74% 30.01 in 10.0 mi ESE 11.5 mph - N/A   Partly Cloudy
4:53 PM 81.0 °F 85.2 °F 72.0 °F 74% 30.01 in 10.0 mi SE 10.4 mph - N/A   Scattered Clouds
5:53 PM 78.1 °F - 73.0 °F 84% 30.02 in 10.0 mi ESE 8.1 mph - N/A   Clear
6:53 PM 78.1 °F - 73.9 °F 87% 30.04 in 10.0 mi ESE 8.1 mph - N/A   Clear
7:53 PM - - - N/A% 30.06 in 10.0 mi ESE 8.1 mph - N/A   Clear
8:53 PM - - - N/A% 30.06 in 10.0 mi ESE 8.1 mph - N/A   Clear
9:53 PM - - - N/A% 30.06 in 10.0 mi ESE 9.2 mph - N/A   Clear
10:53 PM - - - N/A% 30.06 in 10.0 mi ESE 6.9 mph - N/A   Clear
11:53 PM 77.0 °F - 73.9 °F 90% 30.06 in 10.0 mi ESE 6.9 mph - N/A   Partly Cloudy